{"data":{"norad_id":56722,"epoch":"2026-09-19T16:11:30.198048Z","epoch_age_seconds":93301,"freshness":"FRESH","line1":"1 56722U 23068N   26262.67465507 -.00000037  00000+0 -13022-3 0  9991","line2":"2 56722  87.9152 210.0057 0001797  89.1699 270.9637 13.16595297164202","mean_motion":13.16595297,"eccentricity":0.0001797,"inclination_deg":87.9152,"raan_deg":210.0057,"arg_perigee_deg":89.1699,"mean_anomaly_deg":270.9637,"bstar":-0.00013022,"rev_number":16420,"period_min":109.37301715122,"perigee_km":1196.3912901707,"apogee_km":1199.1140649208,"semimajor_km":7575.8896775457,"source":"CELESTRAK","updated_at":"2026-09-20T09:00:44.796808Z"}}